Simultaneous Nadir Overpasses (SNOs) Predictions

Prediction of SNOs between LANDSAT-8 and NOAA-19 Satellite Orbit:

Table of predicted SNOs for the next 14.0 days since TLE Epoch: 11/16/2024
Index Date (LANDSAT-8) Time (LANDSAT-8) Lat,Lon (LANDSAT-8) SZA (LANDSAT-8 ) Date (NOAA-19) Time (NOAA-19) Lat,Lon (NOAA-19) SZA (NOAA-19 ) Distance(km) Time Diff (sec)
1 11/18/2024 05:09:50 -80.28, -47.46 78.88 11/18/2024 05:09:38 -80.28, -47.30 78.86 3.10 12
2 11/20/2024 11:33:06 -80.19,-144.01 78.51 11/20/2024 11:32:11 -80.19,-144.15 78.54 2.76 55
3 11/20/2024 12:22:29 80.29, 24.54 101.67 11/20/2024 12:23:09 80.30, 24.70 101.71 3.26 40
4 11/22/2024 18:45:43 80.25, -71.62 102.08 11/22/2024 18:45:40 80.26, -71.54 102.09 1.45 3
5 11/25/2024 01:08:56 80.20,-167.96 102.42 11/25/2024 01:08:10 80.20,-167.89 102.41 1.46 46
6 11/25/2024 01:58:21 -80.27, 0.36 77.46 11/25/2024 01:59:01 -80.27, 0.29 77.45 1.35 40
7 11/27/2024 08:21:34 -80.23, -95.85 77.13 11/27/2024 08:21:31 -80.22, -95.86 77.13 0.36 3
8 11/29/2024 14:44:46 -80.19, 168.06 76.81 11/29/2024 14:44:00 -80.20, 168.22 76.81 2.95 46



Historial Predications of SNOs between LANDSAT-8 and NOAA-19
